,,PA_Meas_PMT16A,,PR_Meas_QMR101_102,,RH_Meas_QMH101,,SR_Meas_QMS101,,TA_Meas_QMH101,,GenWind,,GenWind,
time,status,PA,status,PR,status,RH,status,SR,status,TA,status,DirAvg,status,SpdAvg,
2011-01-08, 00:00:05,VALID,915.707,VALID,0,VALID,96.4515,VALID,0,VALID,19.7418,VALID,21,VALID,0.565625,
2011-01-08, 00:01:05,VALID,915.706,VALID,0,VALID,96.3905,VALID,0,VALID,19.7013,VALID,21,VALID,0.494141,
2011-01-08, 00:02:05,VALID,915.682,VALID,0,VALID,96.4286,VALID,0,VALID,19.7028,VALID,21,VALID,0.639063,
2011-01-08, 00:03:05,VALID,915.663,VALID,0,VALID,96.4362,VALID,0,VALID,19.6623,VALID,21,VALID,1.00898,
2011-01-08, 00:04:05,VALID,915.675,VALID,0,VALID,96.4972,VALID,0,VALID,19.6623,VALID,21,VALID,0.917969,
2011-01-08, 00:05:05,VALID,915.671,VALID,0,VALID,96.5353,VALID,0.107441,VALID,19.6818,VALID,21,VALID,0.787109,
2011-01-08, 00:06:05,VALID,915.653,VALID,0,VALID,96.5429,VALID,0,VALID,19.6428,VALID,21,VALID,0.711328,
2011-01-08, 00:07:05,VALID,915.679,VALID,0,VALID,96.5201,VALID,0,VALID,19.6458,VALID,21,VALID,0.692187,
2011-01-08, 00:08:05,VALID,915.667,VALID,0,VALID,96.4819,VALID,0,VALID,19.5663,VALID,21,VALID,0.541406,
2011-01-08, 00:09:05,VALID,915.651,VALID,0,VALID,96.5429,VALID,0,VALID,19.5663,VALID,21,VALID,0.605078,
2011-01-08, 00:10:05,VALID,915.677,VALID,0,VALID,96.5582,VALID,0,VALID,19.5468,VALID,21,VALID,0.566016,
2011-01-08, 00:11:05,VALID,915.665,VALID,0,VALID,96.5734,VALID,0,VALID,19.5273,VALID,21,VALID,0.597266,
2011-01-08, 00:12:05,VALID,915.663,VALID,0,VALID,96.6039,VALID,0,VALID,19.5273,VALID,21,VALID,0.699609,
2011-01-08, 00:13:05,VALID,915.647,VALID,0,VALID,96.642,VALID,0,VALID,19.5468,VALID,21,VALID,0.511719,
2011-01-08, 00:14:05,VALID,915.651,VALID,0,VALID,96.6649,VALID,0,VALID,19.5468,VALID,21,VALID,0.203906,
2011-01-08, 00:15:05,VALID,915.666,VALID,0,VALID,96.5353,VALID,0,VALID,19.4883,VALID,21,VALID,0,
2011-01-08, 00:16:05,VALID,915.664,VALID,0,VALID,96.3905,VALID,0.107441,VALID,19.3698,VALID,21,VALID,0,
2011-01-08, 00:17:05,VALID,915.662,VALID,0,VALID,96.36,VALID,0,VALID,19.3113,VALID,21,VALID,0.583594,
2011-01-08, 00:18:05,VALID,915.637,VALID,0,VALID,96.1694,VALID,0,VALID,19.1749,VALID,21,VALID,0.784766,
2011-01-08, 00:19:05,VALID,915.65,VALID,0,VALID,96.421,VALID,0,VALID,19.1554,VALID,21,VALID,0.655469,
2011-01-08, 00:20:05,VALID,915.673,VALID,0,VALID,96.7335,VALID,0.107441,VALID,19.2528,VALID,21,VALID,0.660937,
2011-01-08, 00:21:05,VALID,915.652,VALID,0,VALID,96.7793,VALID,0,VALID,19.3518,VALID,21,VALID,0.585547,
2011-01-08, 00:22:05,VALID,915.636,VALID,0,VALID,96.886,VALID,0,VALID,19.4088,VALID,21,VALID,0.4625,
2011-01-08, 00:23:05,VALID,915.637,VALID,0,VALID,96.6954,VALID,0.107441,VALID,19.3308,VALID,21,VALID,0.199609,
2011-01-08, 00:24:05,VALID,915.622,VALID,0,VALID,96.6725,VALID,0,VALID,19.2918,VALID,21,VALID,0.123047,
2011-01-08, 00:25:05,VALID,915.628,VALID,0,VALID,96.6649,VALID,0,VALID,19.2528,VALID,21,VALID,0,
2011-01-08, 00:26:05,VALID,915.632,VALID,0,VALID,96.7411,VALID,0.107441,VALID,19.2334,VALID,21,VALID,0,
2011-01-08, 00:27:05,VALID,915.628,VALID,0,VALID,96.8174,VALID,0,VALID,19.2528,VALID,21,VALID,0,
2011-01-08, 00:28:05,VALID,915.64,VALID,0,VALID,96.8403,VALID,0,VALID,19.2933,VALID,21,VALID,0,
2011-01-08, 00:29:05,VALID,915.642,VALID,0,VALID,96.8707,VALID,0,VALID,19.2918,VALID,21,VALID,0.269531,
2011-01-08, 00:30:05,VALID,915.651,VALID,0,VALID,96.8936,VALID,0,VALID,19.3503,VALID,21,VALID,0.415625,
2011-01-08, 00:31:05,VALID,915.652,VALID,0,VALID,96.9165,VALID,0,VALID,19.3698,VALID,21,VALID,0.542578,
2011-01-08, 00:32:05,VALID,915.662,VALID,0,VALID,96.8326,VALID,0,VALID,19.3323,VALID,21,VALID,0.56875,
2011-01-08, 00:33:05,VALID,915.658,VALID,0,VALID,96.7793,VALID,0,VALID,19.3323,VALID,21,VALID,0.453125,
2011-01-08, 00:34:05,VALID,915.659,VALID,0,VALID,96.6802,VALID,0,VALID,19.1944,VALID,21,VALID,0.273828,
2011-01-08, 00:35:05,VALID,915.654,VALID,0,VALID,96.6039,VALID,0,VALID,19.1164,VALID,21,VALID,0.183984,
2011-01-08, 00:36:05,VALID,915.657,VALID,0,VALID,96.6497,VALID,0,VALID,19.0788,VALID,21,VALID,0.132813,
2011-01-08, 00:37:05,VALID,915.68,VALID,0,VALID,96.7945,VALID,0,VALID,19.1568,VALID,21,VALID,0.33125,
2011-01-08, 00:38:05,VALID,915.66,VALID,0,VALID,96.9394,VALID,0,VALID,19.2528,VALID,21,VALID,0.525,
2011-01-08, 00:39:05,VALID,915.651,VALID,0,VALID,96.9775,VALID,0,VALID,19.3113,VALID,21,VALID,0.574219,
2011-01-08, 00:40:05,VALID,915.698,VALID,0,VALID,96.9775,VALID,0,VALID,19.3518,VALID,21,VALID,0.568359,
2011-01-08, 00:41:05,VALID,915.639,VALID,0,VALID,96.9317,VALID,0,VALID,19.2918,VALID,21,VALID,0.619922,
2011-01-08, 00:42:05,VALID,915.659,VALID,0,VALID,96.8555,VALID,0,VALID,19.2139,VALID,21,VALID,0.502344,
2011-01-08, 00:43:05,VALID,915.625,VALID,0,VALID,96.8707,VALID,0.107441,VALID,19.2153,VALID,21,VALID,0.526953,
2011-01-08, 00:44:05,VALID,915.621,VALID,0,VALID,96.9165,VALID,0,VALID,19.2139,VALID,21,VALID,0.608984,
2011-01-08, 00:45:05,VALID,915.577,VALID,0,VALID,96.947,VALID,0,VALID,19.2528,VALID,21,VALID,0.466797,
2011-01-08, 00:46:05,VALID,915.612,VALID,0,VALID,97.0232,VALID,0,VALID,19.3308,VALID,21,VALID,0.505078,
2011-01-08, 00:47:05,VALID,915.589,VALID,0,VALID,97.008,VALID,0,VALID,19.3518,VALID,21,VALID,0.391797,
2011-01-08, 00:48:05,VALID,915.575,VALID,0,VALID,96.9775,VALID,0,VALID,19.3518,VALID,21,VALID,0.415625,
2011-01-08, 00:49:05,VALID,915.56,VALID,0,VALID,96.9927,VALID,0,VALID,19.3308,VALID,21,VALID,0.311719,
2011-01-08, 00:50:05,VALID,915.525,VALID,0,VALID,96.9546,VALID,0,VALID,19.3308,VALID,21,VALID,0,
2011-01-08, 00:51:05,VALID,915.544,VALID,0,VALID,96.7411,VALID,0,VALID,19.2543,VALID,21,VALID,0,
2011-01-08, 00:52:05,VALID,915.541,VALID,0,VALID,96.6573,VALID,0,VALID,19.1178,VALID,21,VALID,0.0949219,
2011-01-08, 00:53:05,VALID,915.497,VALID,0,VALID,96.703,VALID,0,VALID,19.0788,VALID,21,VALID,0,
2011-01-08, 00:54:05,VALID,915.461,VALID,0,VALID,96.7793,VALID,0,VALID,19.0983,VALID,21,VALID,0,
2011-01-08, 00:55:05,VALID,915.448,VALID,0,VALID,96.8174,VALID,0,VALID,19.0774,VALID,21,VALID,0.29375,
2011-01-08, 00:56:05,VALID,915.437,VALID,0,VALID,96.886,VALID,0,VALID,19.1359,VALID,21,VALID,0.313672,
2011-01-08, 00:57:05,VALID,915.418,VALID,0,VALID,96.9012,VALID,0,VALID,19.1763,VALID,21,VALID,0.284766,
2011-01-08, 00:58:05,VALID,915.398,VALID,0,VALID,96.8936,VALID,0,VALID,19.1958,VALID,21,VALID,0.389062,
2011-01-08, 00:59:05,VALID,915.4,VALID,0,VALID,96.8555,VALID,0,VALID,19.1749,VALID,21,VALID,0.479297,
2011-01-08, 01:00:05,VALID,915.381,VALID,0,VALID,96.8479,VALID,0,VALID,19.1763,VALID,21,VALID,0.610547,
2011-01-08, 01:01:05,VALID,915.384,VALID,0,VALID,96.8326,VALID,0,VALID,19.1568,VALID,21,VALID,0.614062,
2011-01-08, 01:02:05,VALID,915.357,VALID,0,VALID,96.8326,VALID,0,VALID,19.1568,VALID,21,VALID,0.3125,
2011-01-08, 01:03:05,VALID,915.354,VALID,0,VALID,96.8021,VALID,0.107441,VALID,19.1568,VALID,21,VALID,0,
2011-01-08, 01:04:05,VALID,915.326,VALID,0,VALID,96.8174,VALID,0,VALID,19.1763,VALID,21,VALID,0,
2011-01-08, 01:05:05,VALID,915.308,VALID,0,VALID,96.7335,VALID,0.107441,VALID,19.1164,VALID,21,VALID,0,
2011-01-08, 01:06:05,VALID,915.3,VALID,0,VALID,96.6344,VALID,0,VALID,19.0398,VALID,21,VALID,0.0742188,
2011-01-08, 01:07:05,VALID,915.324,VALID,0,VALID,96.5124,VALID,0,VALID,18.9619,VALID,21,VALID,0.164063,
2011-01-08, 01:08:05,VALID,915.292,VALID,0,VALID,96.5048,VALID,0,VALID,18.9619,VALID,21,VALID,0.198437,
2011-01-08, 01:09:05,VALID,915.304,VALID,0,VALID,96.5201,VALID,0,VALID,19.0008,VALID,21,VALID,0.457812,
2011-01-08, 01:10:05,VALID,915.268,VALID,0,VALID,96.5963,VALID,0,VALID,19.0189,VALID,21,VALID,0.564062,
2011-01-08, 01:11:05,VALID,915.297,VALID,0,VALID,96.5887,VALID,0,VALID,19.0189,VALID,21,VALID,0.521875,
2011-01-08, 01:12:05,VALID,915.291,VALID,0,VALID,96.5963,VALID,0,VALID,19.0593,VALID,21,VALID,0.639453,
2011-01-08, 01:13:05,VALID,915.257,VALID,0,VALID,96.5963,VALID,0,VALID,19.0398,VALID,21,VALID,0.829297,
2011-01-08, 01:14:05,VALID,915.288,VALID,0,VALID,96.6039,VALID,0,VALID,19.0593,VALID,21,VALID,0.753125,
2011-01-08, 01:15:05,VALID,915.248,VALID,0,VALID,96.6649,VALID,0,VALID,19.1178,VALID,21,VALID,0.626562,
2011-01-08, 01:16:05,VALID,915.227,VALID,0,VALID,96.6725,VALID,0,VALID,19.0983,VALID,21,VALID,0.450781,
2011-01-08, 01:17:05,VALID,915.243,VALID,0,VALID,96.7107,VALID,0,VALID,19.0983,VALID,21,VALID,0.567578,
2011-01-08, 01:18:05,VALID,915.227,VALID,0,VALID,96.703,VALID,0,VALID,19.0983,VALID,21,VALID,0.114844,
2011-01-08, 01:19:05,VALID,915.215,VALID,0,VALID,96.7107,VALID,0,VALID,19.0774,VALID,21,VALID,0.326953,
2011-01-08, 01:20:05,VALID,915.197,VALID,0,VALID,96.7793,VALID,0,VALID,19.1373,VALID,21,VALID,0.390234,
2011-01-08, 01:21:05,VALID,915.178,VALID,0,VALID,96.7945,VALID,0,VALID,19.1373,VALID,21,VALID,0.673047,
2011-01-08, 01:22:05,VALID,915.182,VALID,0,VALID,96.9165,VALID,0,VALID,19.2738,VALID,21,VALID,0.589063,
2011-01-08, 01:23:05,VALID,915.172,VALID,0,VALID,96.9089,VALID,0,VALID,19.2738,VALID,21,VALID,0.191406,
2011-01-08, 01:24:05,VALID,915.191,VALID,0,VALID,96.8707,VALID,0,VALID,19.2543,VALID,21,VALID,0.430469,
2011-01-08, 01:25:05,VALID,915.192,VALID,0,VALID,96.886,VALID,0,VALID,19.2334,VALID,21,VALID,0.431641,
2011-01-08, 01:26:05,VALID,915.179,VALID,0,VALID,96.825,VALID,0,VALID,19.1958,VALID,21,VALID,0.282813,
2011-01-08, 01:27:05,VALID,915.199,VALID,0,VALID,96.8479,VALID,0,VALID,19.1958,VALID,21,VALID,0.282031,
2011-01-08, 01:28:05,VALID,915.195,VALID,0,VALID,96.8784,VALID,0,VALID,19.1958,VALID,21,VALID,0.0953125,
2011-01-08, 01:29:05,VALID,915.213,VALID,0,VALID,96.764,VALID,0,VALID,19.1583,VALID,21,VALID,0.111328,
2011-01-08, 01:30:05,VALID,915.208,VALID,0,VALID,96.7183,VALID,0,VALID,19.0593,VALID,21,VALID,0.157422,
2011-01-08, 01:31:05,VALID,915.249,VALID,0,VALID,96.7869,VALID,0,VALID,19.0788,VALID,21,VALID,0.0191406,
2011-01-08, 01:32:05,VALID,915.229,VALID,0,VALID,96.7869,VALID,0,VALID,19.0593,VALID,21,VALID,0.391016,
2011-01-08, 01:33:05,VALID,915.276,VALID,0,VALID,96.7869,VALID,0,VALID,19.0398,VALID,21,VALID,0.535937,
2011-01-08, 01:34:05,VALID,915.262,VALID,0,VALID,96.8098,VALID,0,VALID,19.0398,VALID,21,VALID,0.785156,
2011-01-08, 01:35:05,VALID,915.286,VALID,0,VALID,96.9317,VALID,0,VALID,19.1178,VALID,21,VALID,0.68125,
2011-01-08, 01:36:05,VALID,915.274,VALID,0,VALID,96.9775,VALID,0,VALID,19.1164,VALID,21,VALID,0.351563,
2011-01-08, 01:37:05,VALID,915.312,VALID,0,VALID,96.9775,VALID,0,VALID,19.1958,VALID,21,VALID,0.668359,
2011-01-08, 01:38:05,VALID,915.268,VALID,0,VALID,96.9698,VALID,0,VALID,19.1763,VALID,21,VALID,0.494922,
2011-01-08, 01:39:04,VALID,915.263,VALID,0,VALID,96.9089,VALID,0,VALID,19.1554,VALID,21,VALID,0.686328,
2011-01-08, 01:40:04,VALID,915.231,VALID,0,VALID,96.9089,VALID,0,VALID,19.1373,VALID,21,VALID,0.931641,
2011-01-08, 01:41:04,VALID,915.236,VALID,0,VALID,96.9241,VALID,0,VALID,19.1373,VALID,144,VALID,1.03125,
2011-01-08, 01:42:04,VALID,915.24,VALID,0,VALID,96.9317,VALID,0,VALID,19.1373,VALID,144,VALID,0.709375,
2011-01-08, 01:43:04,VALID,915.232,VALID,0,VALID,96.9317,VALID,0,VALID,19.1178,VALID,144,VALID,0.514063,
2011-01-08, 01:44:04,VALID,915.233,VALID,0,VALID,96.947,VALID,0,VALID,19.1373,VALID,144,VALID,0.725,
2011-01-08, 01:45:04,VALID,915.196,VALID,0,VALID,96.9698,VALID,0,VALID,19.1373,VALID,144,VALID,0.947266,
2011-01-08, 01:46:04,VALID,915.221,VALID,0,VALID,96.9775,VALID,0,VALID,19.1178,VALID,144,VALID,0.675391,
2011-01-08, 01:47:04,VALID,915.221,VALID,0,VALID,96.9622,VALID,0,VALID,19.0788,VALID,144,VALID,0.538281,
2011-01-08, 01:48:04,VALID,915.219,VALID,0,VALID,96.947,VALID,0,VALID,19.0593,VALID,144,VALID,0.580469,
2011-01-08, 01:49:04,VALID,915.185,VALID,0,VALID,96.9317,VALID,0,VALID,19.0593,VALID,144,VALID,0.817187,
2011-01-08, 01:50:04,VALID,915.145,VALID,0,VALID,96.9622,VALID,0,VALID,19.0398,VALID,144,VALID,0.323438,
2011-01-08, 01:51:04,VALID,915.152,VALID,0,VALID,96.9317,VALID,0,VALID,19.0008,VALID,144,VALID,0.572266,
2011-01-08, 01:52:04,VALID,915.148,VALID,0,VALID,96.9394,VALID,0,VALID,19.0008,VALID,144,VALID,0.331641,
2011-01-08, 01:53:04,VALID,915.126,VALID,0,VALID,96.9165,VALID,0,VALID,18.9619,VALID,144,VALID,0.357422,
2011-01-08, 01:54:04,VALID,915.107,VALID,0,VALID,96.9851,VALID,0,VALID,18.9619,VALID,144,VALID,0.627344,
2011-01-08, 01:55:04,VALID,915.091,VALID,0,VALID,97.0003,VALID,0,VALID,18.9619,VALID,144,VALID,0.507813,
2011-01-08, 01:56:04,VALID,915.084,VALID,0,VALID,96.9927,VALID,0,VALID,18.9424,VALID,144,VALID,0.594141,
2011-01-08, 01:57:04,VALID,915.089,VALID,0,VALID,96.9775,VALID,0,VALID,18.9229,VALID,144,VALID,0.605078,
2011-01-08, 01:58:04,VALID,915.054,VALID,0,VALID,96.9851,VALID,0,VALID,18.8839,VALID,144,VALID,0.473437,
2011-01-08, 01:59:04,VALID,915.038,VALID,0,VALID,96.9775,VALID,0,VALID,18.9048,VALID,144,VALID,0.591016,
2011-01-08, 02:00:04,VALID,914.995,VALID,0,VALID,97.0385,VALID,0,VALID,18.9048,VALID,144,VALID,0.567187,
2011-01-08, 02:01:04,VALID,914.984,VALID,0,VALID,97.0308,VALID,0,VALID,18.8839,VALID,144,VALID,0.728516,
2011-01-08, 02:02:04,VALID,914.982,VALID,0,VALID,97.0537,VALID,0,VALID,18.9229,VALID,144,VALID,0.751953,
2011-01-08, 02:03:04,VALID,914.979,VALID,0,VALID,97.0766,VALID,0,VALID,18.9229,VALID,144,VALID,0.719141,
2011-01-08, 02:04:04,VALID,914.947,VALID,0,VALID,97.0766,VALID,0,VALID,18.9229,VALID,144,VALID,0.615625,
2011-01-08, 02:05:04,VALID,914.96,VALID,0,VALID,97.0766,VALID,0,VALID,18.9229,VALID,144,VALID,0.631641,
2011-01-08, 02:06:04,VALID,914.911,VALID,0,VALID,97.1071,VALID,0,VALID,18.9619,VALID,144,VALID,0.91875,
2011-01-08, 02:07:04,VALID,914.905,VALID,0,VALID,97.069,VALID,0,VALID,18.9424,VALID,144,VALID,0.780078,
2011-01-08, 02:08:04,VALID,914.883,VALID,0,VALID,97.0918,VALID,0,VALID,18.9424,VALID,133,VALID,1.0918,
2011-01-08, 02:09:04,VALID,914.891,VALID,0,VALID,97.1071,VALID,0,VALID,18.9619,VALID,130,VALID,1.26016,
2011-01-08, 02:10:04,VALID,914.897,VALID,0,VALID,97.0918,VALID,0,VALID,18.9619,VALID,127,VALID,1.04766,
2011-01-08, 02:11:04,VALID,914.876,VALID,0,VALID,97.0918,VALID,0,VALID,18.9619,VALID,127,VALID,0.659766,
2011-01-08, 02:12:04,VALID,914.87,VALID,0,VALID,97.1147,VALID,0,VALID,18.9814,VALID,127,VALID,0.659375,
2011-01-08, 02:13:04,VALID,914.892,VALID,0,VALID,97.1376,VALID,0,VALID,19.0008,VALID,127,VALID,0.505859,
2011-01-08, 02:14:04,VALID,914.885,VALID,0,VALID,97.1071,VALID,0,VALID,18.9814,VALID,127,VALID,0.516797,
2011-01-08, 02:15:04,VALID,914.92,VALID,0,VALID,97.1071,VALID,0,VALID,18.9814,VALID,127,VALID,0.694922,
2011-01-08, 02:16:04,VALID,914.93,VALID,0,VALID,97.1147,VALID,0,VALID,18.9619,VALID,127,VALID,0.509375,
2011-01-08, 02:17:04,VALID,914.906,VALID,0,VALID,97.1147,VALID,0,VALID,18.9814,VALID,127,VALID,0.671094,
2011-01-08, 02:18:04,VALID,914.916,VALID,0,VALID,97.1299,VALID,0,VALID,18.9814,VALID,127,VALID,0.745313,
2011-01-08, 02:19:04,VALID,914.939,VALID,0,VALID,97.1452,VALID,0,VALID,19.0008,VALID,127,VALID,0.665625,
2011-01-08, 02:20:04,VALID,914.948,VALID,0,VALID,97.1528,VALID,0,VALID,19.0008,VALID,127,VALID,0.664453,
2011-01-08, 02:21:04,VALID,914.97,VALID,0,VALID,97.1528,VALID,0,VALID,19.0008,VALID,127,VALID,0.560156,
2011-01-08, 02:22:04,VALID,914.926,VALID,0,VALID,97.1604,VALID,0,VALID,19.0008,VALID,127,VALID,0.880859,
2011-01-08, 02:23:04,VALID,914.934,VALID,0,VALID,97.1681,VALID,0.107441,VALID,19.0203,VALID,127,VALID,0.651953,
2011-01-08, 02:24:04,VALID,914.923,VALID,0,VALID,97.1376,VALID,0,VALID,19.0203,VALID,127,VALID,0.642969,
2011-01-08, 02:25:04,VALID,914.92,VALID,0,VALID,97.1757,VALID,0,VALID,19.0203,VALID,127,VALID,0.925,
2011-01-08, 02:26:04,VALID,914.947,VALID,0,VALID,97.1681,VALID,0,VALID,19.0203,VALID,127,VALID,0.636328,
2011-01-08, 02:27:04,VALID,914.924,VALID,0,VALID,97.1528,VALID,0,VALID,19.0218,VALID,127,VALID,0.921484,
2011-01-08, 02:28:04,VALID,914.92,VALID,0,VALID,97.1452,VALID,0,VALID,19.0008,VALID,127,VALID,1.05117,
2011-01-08, 02:29:04,VALID,914.922,VALID,0,VALID,97.1681,VALID,0,VALID,19.0203,VALID,127,VALID,0.678516,
2011-01-08, 02:30:04,VALID,914.894,VALID,0,VALID,97.1376,VALID,0,VALID,19.0203,VALID,127,VALID,0.656641,
2011-01-08, 02:31:04,VALID,914.913,VALID,0,VALID,97.1528,VALID,0,VALID,19.0203,VALID,126,VALID,0.896484,
2011-01-08, 02:32:04,VALID,914.872,VALID,0,VALID,97.1299,VALID,0,VALID,19.0203,VALID,126,VALID,0.871094,
2011-01-08, 02:33:04,VALID,914.855,VALID,0,VALID,97.1223,VALID,0,VALID,19.0203,VALID,126,VALID,0.690234,
2011-01-08, 02:34:04,VALID,914.849,VALID,0,VALID,97.1223,VALID,0,VALID,19.0203,VALID,126,VALID,0.996094,
2011-01-08, 02:35:04,VALID,914.808,VALID,0,VALID,97.1223,VALID,0,VALID,19.0008,VALID,126,VALID,0.826172,
2011-01-08, 02:36:04,VALID,914.792,VALID,0,VALID,97.1223,VALID,0,VALID,19.0008,VALID,126,VALID,0.693359,
2011-01-08, 02:37:04,VALID,914.8,VALID,0,VALID,97.1452,VALID,0,VALID,19.0008,VALID,126,VALID,0.749609,
2011-01-08, 02:38:04,VALID,914.781,VALID,0,VALID,97.1528,VALID,0,VALID,19.0203,VALID,126,VALID,1.00117,
2011-01-08, 02:39:04,VALID,914.761,VALID,0,VALID,97.1833,VALID,0,VALID,19.0398,VALID,122,VALID,1.12227,
2011-01-08, 02:40:04,VALID,914.762,VALID,0,VALID,97.1681,VALID,0,VALID,19.0593,VALID,122,VALID,1.18906,
2011-01-08, 02:41:04,VALID,914.749,VALID,0,VALID,97.1299,VALID,0,VALID,19.0608,VALID,122,VALID,0.832031,
2011-01-08, 02:42:04,VALID,914.727,VALID,0,VALID,97.1223,VALID,0,VALID,19.0398,VALID,122,VALID,0.844141,
2011-01-08, 02:43:04,VALID,914.734,VALID,0,VALID,97.1147,VALID,0,VALID,19.0398,VALID,121,VALID,0.933984,
2011-01-08, 02:44:04,VALID,914.726,VALID,0,VALID,97.1071,VALID,0,VALID,19.0203,VALID,121,VALID,0.846484,
2011-01-08, 02:45:04,VALID,914.712,VALID,0,VALID,97.1223,VALID,0,VALID,19.0398,VALID,121,VALID,0.985937,
2011-01-08, 02:46:04,VALID,914.704,VALID,0,VALID,97.0766,VALID,0,VALID,19.0398,VALID,121,VALID,0.877344,
2011-01-08, 02:47:04,VALID,914.687,VALID,0,VALID,97.1223,VALID,0,VALID,19.0398,VALID,121,VALID,0.663281,
2011-01-08, 02:48:04,VALID,914.695,VALID,0,VALID,97.1223,VALID,0,VALID,19.0593,VALID,121,VALID,0.660937,
2011-01-08, 02:49:04,VALID,914.674,VALID,0,VALID,97.1071,VALID,0,VALID,19.0803,VALID,121,VALID,0.853516,
2011-01-08, 02:50:04,VALID,914.633,VALID,0,VALID,97.069,VALID,0,VALID,19.0398,VALID,121,VALID,0.713672,
2011-01-08, 02:51:04,VALID,914.604,VALID,0,VALID,97.0385,VALID,0,VALID,19.0398,VALID,121,VALID,0.869141,
2011-01-08, 02:52:04,VALID,914.565,VALID,0,VALID,97.0232,VALID,0,VALID,19.0203,VALID,121,VALID,0.792578,
2011-01-08, 02:53:04,VALID,914.545,VALID,0,VALID,97.0461,VALID,0,VALID,19.0203,VALID,121,VALID,1.15234,
2011-01-08, 02:54:04,VALID,914.567,VALID,0,VALID,97.1071,VALID,0,VALID,19.0593,VALID,121,VALID,1.05859,
2011-01-08, 02:55:04,VALID,914.542,VALID,0,VALID,97.0537,VALID,0,VALID,19.0593,VALID,121,VALID,0.64375,
2011-01-08, 02:56:04,VALID,914.529,VALID,0,VALID,97.0385,VALID,0,VALID,19.0593,VALID,121,VALID,0.85,
2011-01-08, 02:57:04,VALID,914.521,VALID,0,VALID,96.9927,VALID,0,VALID,19.0398,VALID,121,VALID,0.582812,
2011-01-08, 02:58:04,VALID,914.519,VALID,0,VALID,96.9775,VALID,0,VALID,19.0203,VALID,121,VALID,0.657031,
2011-01-08, 02:59:04,VALID,914.508,VALID,0,VALID,96.947,VALID,0,VALID,19.0203,VALID,121,VALID,0.401953,
2011-01-08, 03:00:04,VALID,914.521,VALID,0,VALID,96.9241,VALID,0,VALID,19.0008,VALID,121,VALID,0.408594,
2011-01-08, 03:01:04,VALID,914.506,VALID,0,VALID,96.8936,VALID,0,VALID,18.9619,VALID,121,VALID,0.592969,
2011-01-08, 03:02:04,VALID,914.483,VALID,0,VALID,96.8784,VALID,0,VALID,18.9619,VALID,121,VALID,0.629297,
2011-01-08, 03:03:04,VALID,914.51,VALID,0,VALID,96.886,VALID,0,VALID,18.9424,VALID,121,VALID,0.303516,
2011-01-08, 03:04:04,VALID,914.495,VALID,0,VALID,96.8936,VALID,0,VALID,18.9619,VALID,121,VALID,0.232031,
2011-01-08, 03:05:04,VALID,914.455,VALID,0,VALID,96.8631,VALID,0,VALID,18.9424,VALID,121,VALID,0.504687,
2011-01-08, 03:06:04,VALID,914.462,VALID,0,VALID,96.8479,VALID,0,VALID,18.9229,VALID,121,VALID,0.071875,
2011-01-08, 03:07:04,VALID,914.445,VALID,0,VALID,96.7869,VALID,0,VALID,18.8644,VALID,121,VALID,0.296094,
2011-01-08, 03:08:04,VALID,914.457,VALID,0,VALID,96.6878,VALID,0,VALID,18.8059,VALID,121,VALID,0.347656,
2011-01-08, 03:09:04,VALID,914.462,VALID,0,VALID,96.703,VALID,0,VALID,18.7669,VALID,121,VALID,0.376953,
2011-01-08, 03:10:04,VALID,914.478,VALID,0,VALID,96.7107,VALID,0,VALID,18.7474,VALID,121,VALID,0.460156,
2011-01-08, 03:11:04,VALID,914.458,VALID,0,VALID,96.6878,VALID,0,VALID,18.7084,VALID,121,VALID,0.430078,
2011-01-08, 03:12:04,VALID,914.467,VALID,0,VALID,96.7183,VALID,0,VALID,18.6875,VALID,121,VALID,0.420703,
2011-01-08, 03:13:04,VALID,914.461,VALID,0,VALID,96.7869,VALID,0,VALID,18.6889,VALID,121,VALID,0.4625,
2011-01-08, 03:14:04,VALID,914.454,VALID,0,VALID,96.8021,VALID,0,VALID,18.7098,VALID,121,VALID,0.382422,
2011-01-08, 03:15:04,VALID,914.437,VALID,0,VALID,96.8555,VALID,0,VALID,18.7084,VALID,121,VALID,0.416797,
2011-01-08, 03:16:04,VALID,914.469,VALID,0,VALID,96.8936,VALID,0,VALID,18.7084,VALID,120,VALID,0.215234,
2011-01-08, 03:17:04,VALID,914.446,VALID,0,VALID,96.8784,VALID,0,VALID,18.7084,VALID,121,VALID,0.423438,
2011-01-08, 03:18:04,VALID,914.447,VALID,0,VALID,96.8707,VALID,0,VALID,18.6889,VALID,121,VALID,0.780078,
2011-01-08, 03:19:04,VALID,914.436,VALID,0,VALID,96.8936,VALID,0,VALID,18.6903,VALID,121,VALID,0.459375,
2011-01-08, 03:20:04,VALID,914.419,VALID,0,VALID,96.8707,VALID,0,VALID,18.6499,VALID,121,VALID,0.623047,
2011-01-08, 03:21:04,VALID,914.39,VALID,0,VALID,96.8936,VALID,0,VALID,18.6694,VALID,121,VALID,0.650781,
2011-01-08, 03:22:04,VALID,914.368,VALID,0,VALID,96.9851,VALID,0,VALID,18.7084,VALID,121,VALID,0.892578,
2011-01-08, 03:23:04,VALID,914.382,VALID,0,VALID,97.0003,VALID,0,VALID,18.7474,VALID,121,VALID,0.837109,
2011-01-08, 03:24:04,VALID,914.374,VALID,0,VALID,97.0385,VALID,0,VALID,18.7864,VALID,121,VALID,0.657031,
2011-01-08, 03:25:04,VALID,914.369,VALID,0,VALID,97.0385,VALID,0,VALID,18.8059,VALID,121,VALID,0.460156,
2011-01-08, 03:26:04,VALID,914.314,VALID,0,VALID,97.008,VALID,0,VALID,18.8059,VALID,121,VALID,0.85625,
2011-01-08, 03:27:04,VALID,914.317,VALID,0,VALID,97.0232,VALID,0,VALID,18.7864,VALID,121,VALID,0.735156,
2011-01-08, 03:28:04,VALID,914.331,VALID,0,VALID,97.0232,VALID,0,VALID,18.8073,VALID,121,VALID,0.552734,
2011-01-08, 03:29:04,VALID,914.3,VALID,0,VALID,97.008,VALID,0,VALID,18.7878,VALID,121,VALID,0.667969,
2011-01-08, 03:30:04,VALID,914.278,VALID,0,VALID,97.008,VALID,0,VALID,18.7474,VALID,121,VALID,0.708203,
2011-01-08, 03:31:04,VALID,914.292,VALID,0,VALID,97.0385,VALID,0,VALID,18.7878,VALID,121,VALID,0.528906,
2011-01-08, 03:32:04,VALID,914.273,VALID,0,VALID,97.0766,VALID,0,VALID,18.7864,VALID,121,VALID,0.758594,
2011-01-08, 03:33:04,VALID,914.288,VALID,0,VALID,97.0918,VALID,0,VALID,18.8268,VALID,121,VALID,0.557031,
2011-01-08, 03:34:04,VALID,914.28,VALID,0,VALID,97.0613,VALID,0,VALID,18.8073,VALID,121,VALID,0.200391,
2011-01-08, 03:35:04,VALID,914.28,VALID,0,VALID,97.0461,VALID,0,VALID,18.7474,VALID,121,VALID,0.191797,
2011-01-08, 03:36:04,VALID,914.299,VALID,0,VALID,97.0308,VALID,0,VALID,18.7293,VALID,121,VALID,0.303125,
2011-01-08, 03:37:04,VALID,914.286,VALID,0,VALID,97.0613,VALID,0,VALID,18.7279,VALID,121,VALID,0.464453,
2011-01-08, 03:38:04,VALID,914.302,VALID,0,VALID,97.0766,VALID,0,VALID,18.7279,VALID,121,VALID,0.260938,
2011-01-08, 03:39:04,VALID,914.28,VALID,0,VALID,97.069,VALID,0,VALID,18.7084,VALID,121,VALID,0.583594,
2011-01-08, 03:40:04,VALID,914.297,VALID,0,VALID,97.1223,VALID,0,VALID,18.7474,VALID,121,VALID,0.421875,
2011-01-08, 03:41:04,VALID,914.309,VALID,0,VALID,97.1071,VALID,0,VALID,18.7669,VALID,121,VALID,0.517969,
2011-01-08, 03:42:04,VALID,914.273,VALID,0,VALID,97.1376,VALID,0,VALID,18.8268,VALID,121,VALID,0.373437,
2011-01-08, 03:43:04,VALID,914.28,VALID,0,VALID,97.1147,VALID,0,VALID,18.7864,VALID,121,VALID,0.590234,
2011-01-08, 03:44:04,VALID,914.283,VALID,0,VALID,97.1528,VALID,0,VALID,18.8268,VALID,121,VALID,0.583594,
2011-01-08, 03:45:04,VALID,914.285,VALID,0,VALID,97.0994,VALID,0,VALID,18.7864,VALID,121,VALID,0.599609,